Content
SEND FEEDBACK

Daily
Averages
Monthly
Summary
United States of America

TAMUNING, GUAM


Home > North America > United States > Guam
Elevation: 250 feet     Latitude: 13 29N     Longitude: 144 47E

WEATHER
 
SELECT A DAY
Number of Records: 341,964;   Date Range: 1/1/95 - 7/26/14
 
SHARE

PRINT THIS DATA

[ ← Previous Day ]
WEATHER ALMANAC - NOVEMBER 4, 2013
[ Next Day → ]
[ °C ]   °F
Weather ElementAverageHighLow
Temperature81.6 °F85.3 °F (12:58 pm)77 °F (3:26 am)
Dewpoint77.1 °F78.8 °F (9:09 am)75.2 °F (3:26 am)
Humidity86.3 %96 % (3:58 am)77 % (12:58 pm)
Barometer29.87 in29.93 in (8:59 am)29.79 in (2:58 pm)
Wind Speed15.3 mph19.6 mph (11:03 pm)
Wind Gust25.3 mph (11:43 pm)
Weather ElementAverage
Visibility9.7 mi
Wind DirectionENE (57.6 °)

Weather ElementTotal
Precipitation0.04 in
Cooling Degree Days16.2 (Base 65)
Growing Degree Days31.2 (Base 50)
Averaged from 63 records on November 4, 2013
WEATHER CONDITIONS BREAKOUT
WIND DIRECTION BREAKOUT
WEATHER BY HOUR - NOVEMBER 4, 2013
[ °C ]   °F
Local TimeTemperatureDewpointHumidityBarometerVisibilityWind DirectionWind SpeedGust SpeedPrecipitationEventsConditions
3:16 AM78.8 °F77.0 °F94 %29.86 in6.0 miENE (70°)13.8 mphRainLight Rain
3:26 AM77.0 °F75.2 °F94 %29.86 in8.0 miENE (60°)10.4 mphScattered Clouds
3:58 AM77.4 °F76.3 °F96 %29.83 in10.0 miENE (60°)8.1 mph0.03 inClear
4:40 AM78.8 °F77.0 °F94 %29.86 in8.0 miENE (60°)12.7 mphRainLight Rain
4:53 AM78.8 °F77.0 °F94 %29.87 in10.0 miENE (60°)9.2 mphScattered Clouds
4:58 AM78.6 °F77.0 °F95 %29.84 in10.0 miENE (60°)9.2 mph0.01 inScattered Clouds
5:13 AM78.8 °F77.0 °F94 %29.87 in10.0 miENE (60°)12.7 mphScattered Clouds
5:58 AM79.0 °F76.6 °F92 %29.86 in10.0 miENE (60°)12.7 mphScattered Clouds
6:58 AM79.5 °F75.9 °F89 %29.88 in10.0 miENE (60°)15.0 mphScattered Clouds
7:18 AM80.6 °F77.0 °F89 %29.91 in10.0 miENE (60°)12.7 mphMostly Cloudy
7:23 AM80.6 °F75.2 °F84 %29.91 in10.0 miENE (60°)16.1 mphScattered Clouds
7:58 AM81.3 °F76.8 °F86 %29.89 in10.0 miENE (60°)15.0 mph19.6 mphPartly Cloudy
8:58 AM82.4 °F77.5 °F85 %29.91 in7.0 miNE (40°)12.7 mphPartly Cloudy
8:59 AM82.4 °F77.0 °F84 %29.93 in5.0 miNE (50°)15.0 mph20.7 mphRainLight Rain
9:01 AM80.6 °F77.0 °F89 %29.93 in5.0 miEast (80°)13.8 mph20.7 mphRainHeavy Rain
9:09 AM82.4 °F78.8 °F89 %29.93 in10.0 miENE (70°)15.0 mph20.7 mphPartly Cloudy
9:39 AM82.4 °F78.8 °F89 %29.93 in10.0 miENE (60°)15.0 mphMostly Cloudy
9:49 AM84.2 °F78.8 °F84 %29.93 in10.0 miENE (60°)16.1 mphMostly Cloudy
9:58 AM84.0 °F78.8 °F84 %29.89 in10.0 miENE (60°)15.0 mphMostly Cloudy
10:03 AM82.4 °F78.8 °F89 %29.92 in10.0 miENE (60°)13.8 mphMostly Cloudy
10:28 AM82.4 °F78.8 °F89 %29.91 in10.0 miENE (60°)16.1 mphMostly Cloudy
10:33 AM84.2 °F77.0 °F79 %29.91 in10.0 miNE (50°)15.0 mphScattered Clouds
10:58 AM84.6 °F78.6 °F82 %29.87 in10.0 miENE (70°)13.8 mphScattered Clouds
11:08 AM84.2 °F78.8 °F84 %29.90 in10.0 miENE (60°)15.0 mph20.7 mphMostly Cloudy
11:23 AM84.2 °F77.0 °F79 %29.89 in10.0 miENE (70°)16.1 mphMostly Cloudy
11:33 AM84.2 °F77.0 °F79 %29.89 in10.0 miENE (70°)17.3 mphScattered Clouds
11:58 AM84.0 °F78.4 °F83 %29.86 in10.0 miENE (60°)16.1 mphScattered Clouds
12:08 PM84.2 °F78.8 °F84 %29.87 in10.0 miENE (70°)16.1 mph21.9 mphMostly Cloudy
12:13 PM84.2 °F78.8 °F84 %29.87 in10.0 miENE (70°)12.7 mph20.7 mphMostly Cloudy
12:28 PM84.2 °F78.8 °F84 %29.87 in10.0 miENE (70°)15.0 mphScattered Clouds
12:58 PM85.3 °F77.4 °F77 %29.82 in10.0 miENE (70°)16.1 mph24.2 mphScattered Clouds
1:58 PM84.4 °F77.4 °F79 %29.81 in10.0 miNE (50°)17.3 mphScattered Clouds
2:58 PM84.9 °F77.9 °F79 %29.79 in10.0 miNE (50°)13.8 mphPartly Cloudy
3:54 PM84.2 °F77.0 °F79 %29.83 in10.0 miNE (50°)16.1 mphMostly Cloudy
3:58 PM83.3 °F77.4 °F82 %29.81 in10.0 miNE (50°)18.4 mphMostly Cloudy
4:03 PM82.4 °F77.0 °F84 %29.83 in10.0 miNE (50°)15.0 mphScattered Clouds
4:58 PM82.6 °F76.8 °F83 %29.81 in10.0 miNE (50°)15.0 mph21.9 mphScattered Clouds
5:08 PM82.4 °F77.0 °F84 %29.84 in10.0 miENE (60°)13.8 mph21.9 mphMostly Cloudy
5:18 PM82.4 °F77.0 °F84 %29.85 in10.0 miENE (60°)17.3 mphMostly Cloudy
5:33 PM82.4 °F77.0 °F84 %29.85 in10.0 miENE (60°)16.1 mphMostly Cloudy
5:43 PM80.6 °F75.2 °F84 %29.85 in10.0 miENE (60°)16.1 mphScattered Clouds
5:58 PM81.0 °F75.6 °F84 %29.82 in10.0 miENE (60°)17.3 mphScattered Clouds
6:33 PM80.6 °F77.0 °F89 %29.87 in10.0 miNE (50°)17.3 mphMostly Cloudy
6:38 PM80.6 °F75.2 °F84 %29.87 in10.0 miENE (60°)16.1 mphScattered Clouds
6:53 PM80.6 °F75.2 °F84 %29.87 in10.0 miNE (50°)15.0 mphMostly Cloudy
6:58 PM80.8 °F76.1 °F86 %29.84 in10.0 miENE (60°)16.1 mphMostly Cloudy
7:13 PM80.6 °F77.0 °F89 %29.88 in10.0 miENE (60°)17.3 mphScattered Clouds
7:58 PM80.2 °F76.3 °F88 %29.86 in10.0 miNE (50°)17.3 mphClear
8:28 PM80.6 °F77.0 °F89 %29.89 in10.0 miNE (50°)16.1 mphMostly Cloudy
8:33 PM80.6 °F77.0 °F89 %29.89 in10.0 miNE (50°)16.1 mphScattered Clouds
8:58 PM81.1 °F76.6 °F86 %29.87 in10.0 miNE (50°)15.0 mphScattered Clouds
9:58 PM80.8 °F75.2 °F83 %29.87 in10.0 miENE (60°)17.3 mphScattered Clouds
10:33 PM80.6 °F77.0 °F89 %29.89 in10.0 miNE (50°)15.0 mphMostly Cloudy
10:48 PM80.6 °F77.0 °F89 %29.89 in10.0 miNE (50°)18.4 mphScattered Clouds
10:53 PM80.6 °F75.2 °F84 %29.89 in10.0 miNE (50°)17.3 mphMostly Cloudy
10:58 PM80.8 °F76.3 °F86 %29.86 in10.0 miNE (50°)16.1 mphMostly Cloudy
11:03 PM80.6 °F77.0 °F89 %29.88 in10.0 miNE (50°)19.6 mphMostly Cloudy
11:08 PM80.6 °F77.0 °F89 %29.89 in10.0 miNE (50°)17.3 mphScattered Clouds
11:38 PM80.6 °F77.0 °F89 %29.88 in10.0 miNE (50°)17.3 mphMostly Cloudy
11:43 PM80.6 °F77.0 °F89 %29.88 in10.0 miNE (50°)18.4 mph25.3 mphMostly Cloudy
11:48 PM80.6 °F77.0 °F89 %29.88 in10.0 miENE (60°)18.4 mph25.3 mphMostly Cloudy
11:53 PM80.6 °F77.0 °F89 %29.88 in10.0 miNE (50°)16.1 mphMostly Cloudy
11:58 PM80.4 °F76.1 °F87 %29.86 in10.0 miNE (50°)18.4 mph23.0 mphMostly Cloudy
Hourly data recorded from PGUA, located miles away from Tamuning, Guam







STORIES FROM OUR PARTNERS